Stations météo

Publicité
Auch, France (7622): Température de l'air & dewpoint: 20.06.2017 07:00:00 - 26.06.2017 07:00:00 (CEST)Auch, France (7622): Température de l'air 5cm: 20.06.2017 07:00:00 - 26.06.2017 07:00:00 (CEST)Auch, France (7622): Température de l'air -20cm & Température de l'air -100cm: 20.06.2017 07:00:00 - 26.06.2017 07:00:00 (CEST)Auch, France (7622): Vitesse du vent & gusts: 20.06.2017 07:00:00 - 26.06.2017 07:00:00 (CEST)Auch, France (7622): Direction du vent: 20.06.2017 07:00:00 - 26.06.2017 07:00:00 (CEST)Auch, France (7622): reduced air pressure: 20.06.2017 07:00:00 - 26.06.2017 07:00:00 (CEST)Auch, France (7622): visibility: 20.06.2017 07:00:00 - 26.06.2017 07:00:00 (CEST)Auch, France (7622): Ensoleillement: 20.06.2017 07:00:00 - 26.06.2017 07:00:00 (CEST)Auch, France (7622): Quantités de précipitations: 20.06.2017 07:00:00 - 26.06.2017 07:00:00 (CEST)
Date & Time tt [°C] td [°C] tt 5cm [°C] tt -20cm [°C] tt -100cm [°C] ff [km/h] ff [knt] fx [km/h] fx [knt] dd ppp [hPa] vv [km] sd [min] rr [mm]
26.06.2017 07:00:00 19,1 18,6 16,7 25,4 20,9 4 2 9 5 SSE 1011,4 14 7 0,0
26.06.2017 06:00:00 18,6 17,8 16,6 25,6 20,9 5 3 6 3 S 1011,3 5 0 0,0
26.06.2017 05:00:00 19,7 18,7 18,7 25,7 20,9 2 1 16 9 SSW 1011,0 12 0 0,2
26.06.2017 04:00:00 20,4 19,1 19,2 25,9 20,9 4 2 11 6 E 1011,9 13 0 1,6
26.06.2017 03:00:00 21,1 18,1 19,2 26,0 20,9 4 2 9 5 SSE 1013,3 16 0 0,2
26.06.2017 02:00:00 21,5 16,7 19,8 26,1 20,9 5 3 9 5 S 1013,3 20 0 0,0
26.06.2017 01:00:00 21,7 16,4 19,7 26,3 20,9 0 0 6 3 N 1013,5 20 0 0,0
26.06.2017 00:00:00 22,8 16,1 20,1 26,4 20,9 0 0 5 3 N 1013,6 20 0 0,0
25.06.2017 23:00:00 24,6 15,5 22,8 26,4 20,9 3 2 12 7 S 1013,8 20 0 0,0
25.06.2017 22:00:00 26,0 14,8 25,0 26,3 20,9 12 7 25 14 SSE 1013,8 18 0 0,0
25.06.2017 21:00:00 27,5 12,7 26,8 26,2 20,9 10 5 18 10 SE 1013,6 20 49 0,0
25.06.2017 20:00:00 28,2 11,7 28,5 26,1 20,9 4 2 13 7 WSW 1014,4 19 0 0,0
25.06.2017 19:00:00 29,0 11,1 32,3 25,7 20,9 5 3 19 10 NW 1014,5 20 55 0,0
25.06.2017 18:00:00 29,3 11,4 34,8 25,4 20,9 6 3 19 10 WNW 1014,8 20 60 0,0
25.06.2017 17:00:00 29,0 12,0 34,9 25,0 20,9 6 3 16 9 E 1015,6 20 60 0,0
25.06.2017 16:00:00 27,7 12,1 34,2 24,5 20,9 9 5 16 9 N 1016,5 20 60 0,0
25.06.2017 15:00:00 26,8 12,8 34,2 24,2 20,9 7 4 21 11 N 1017,2 20 60 0,0
25.06.2017 14:00:00 25,8 12,6 33,4 23,9 20,9 7 4 18 10 NW 1018,4 20 60 0,0
25.06.2017 13:00:00 24,5 13,4 27,5 23,8 20,9 6 3 16 9 NE 1018,9 20 30 0,0
25.06.2017 12:00:00 22,9 13,1 27,2 23,8 20,9 5 3 14 8 NE 1019,7 20 26 0,0
25.06.2017 11:00:00 22,0 14,4 21,1 23,8 20,9 3 1 9 5 N 1020,2 19 20 0,0
25.06.2017 10:00:00 18,9 14,4 18,9 23,9 20,9 3 2 11 6 N 1020,7 20 0 0,0
25.06.2017 09:00:00 18,1 14,6 18,2 24,0 20,9 5 3 8 5 N 1020,6 20 0 0,0
25.06.2017 08:00:00 17,5 14,8 16,9 24,2 20,9 2 1 8 4 N 1020,6 20 0 0,0
25.06.2017 07:00:00 16,3 14,8 15,0 24,4 20,9 0 0 4 2 N 1020,6 20 0 0,0
25.06.2017 06:00:00 15,4 13,9 12,2 24,6 20,9 0 0 3 2 N 1020,5 20 0 0,0
25.06.2017 05:00:00 16,1 13,8 13,4 24,7 20,9 2 1 9 5 S 1020,6 20 0 0,0
25.06.2017 04:00:00 18,0 14,3 15,5 24,9 20,9 5 3 9 5 N 1020,5 20 0 0,0
25.06.2017 03:00:00 19,0 14,9 17,1 25,0 20,9 2 1 10 5 NW 1021,1 20 0 0,0
25.06.2017 02:00:00 19,8 14,6 17,4 25,1 20,9 2 1 9 5 WSW 1021,3 20 0 0,0
25.06.2017 01:00:00 20,8 14,7 19,5 25,2 20,9 4 2 14 7 W 1021,8 20 0 0,0
25.06.2017 00:00:00 21,2 14,4 20,0 25,3 20,9 8 4 13 7 W 1021,6 20 0 0,0
24.06.2017 23:00:00 21,2 14,4 20,1 25,4 20,9 4 2 14 8 WSW 1021,4 20 0 0,0
24.06.2017 22:00:00 21,8 14,4 21,2 25,5 20,9 7 4 16 9 W 1020,7 20 0 0,0
24.06.2017 21:00:00 22,3 14,4 21,8 25,4 20,9 6 4 16 8 W 1020,4 20 0 0,0
24.06.2017 20:00:00 23,1 13,6 23,6 25,4 20,9 10 6 17 9 WNW 1020,2 20 14 0,0
24.06.2017 19:00:00 23,1 13,8 23,8 25,3 20,9 11 6 21 11 WNW 1020,2 20 0 0,0
24.06.2017 18:00:00 23,7 14,1 23,7 25,2 20,9 9 5 21 11 WNW 1020,0 20 0 0,0
24.06.2017 17:00:00 23,2 13,4 23,7 25,1 20,9 12 7 23 13 W 1020,3 20 0 0,0
24.06.2017 16:00:00 23,7 13,0 25,5 24,9 20,9 11 6 20 11 NW 1020,3 20 5 0,0
24.06.2017 15:00:00 24,2 12,8 28,0 24,7 20,9 10 5 20 11 NW 1020,5 20 4 0,0
24.06.2017 14:00:00 24,1 13,3 26,7 24,6 20,8 6 3 18 10 NW 1020,9 20 8 0,0
24.06.2017 13:00:00 22,7 13,5 26,1 24,6 20,9 8 5 22 12 WNW 1021,5 20 0 0,0
24.06.2017 12:00:00 22,1 13,7 25,3 24,6 20,9 7 4 16 8 NW 1021,6 20 0 0,0
24.06.2017 11:00:00 21,3 14,0 23,2 24,6 20,9 7 4 13 7 NW 1021,8 20 0 0,0
24.06.2017 10:00:00 20,2 13,9 20,3 24,7 20,8 6 4 12 7 NNW 1022,0 20 0 0,0
24.06.2017 09:00:00 19,2 14,2 19,5 24,8 20,9 6 3 10 6 WNW 1022,3 20 0 0,0
24.06.2017 08:00:00 18,8 15,1 17,9 25,0 20,8 4 2 8 4 NNW 1022,2 20 0 0,0
24.06.2017 07:00:00 18,5 15,2 17,5 25,1 20,8 4 2 10 5 WNW 1022,3 20 0 0,0
24.06.2017 06:00:00 19,2 15,1 18,9 25,2 20,8 5 3 11 6 W 1022,7 20 0 0,0
24.06.2017 05:00:00 19,7 15,6 19,4 25,3 20,8 8 4 14 8 NW 1022,9 20 0 0,0
24.06.2017 04:00:00 20,2 16,6 19,9 25,4 20,8 6 3 10 5 WNW 1023,1 20 0 0,0
24.06.2017 03:00:00 20,4 17,2 20,1 25,6 20,8 5 3 13 7 WNW 1023,2 20 0 0,0
24.06.2017 02:00:00 20,7 17,5 20,4 25,7 20,8 5 3 10 5 NW 1023,6 20 0 0,0
24.06.2017 01:00:00 20,9 17,9 20,6 25,8 20,8 0 0 11 6 N 1023,8 19 0 0,0
24.06.2017 00:00:00 21,1 17,9 20,8 25,9 20,8 5 3 13 7 W 1024,0 20 0 0,0
23.06.2017 23:00:00 21,4 18,2 21,0 26,0 20,8 5 3 15 8 W 1023,5 20 0 0,0
23.06.2017 22:00:00 21,9 18,1 21,4 26,0 20,8 7 4 14 8 WNW 1023,0 19 0 0,0
23.06.2017 21:00:00 22,6 17,7 22,5 26,0 20,7 6 3 10 5 NW 1022,6 20 0 0,0
23.06.2017 20:00:00 22,9 17,6 23,1 26,0 20,7 8 4 14 8 NW 1022,0 20 0 0,0
23.06.2017 19:00:00 23,4 17,6 24,6 26,1 20,7 7 4 15 8 NW 1021,9 20 0 0,0
23.06.2017 18:00:00 22,9 17,8 24,2 26,1 20,7 9 5 18 10 WNW 1022,3 20 0 0,0
23.06.2017 17:00:00 23,1 17,8 24,1 26,1 20,7 9 5 16 8 WNW 1022,4 20 0 0,0
23.06.2017 16:00:00 23,5 17,7 23,6 26,2 20,7 8 5 18 10 NW 1022,3 20 0 0,0
23.06.2017 15:00:00 23,0 17,5 23,8 26,2 20,7 10 5 16 9 NW 1022,5 20 0 0,0
23.06.2017 14:00:00 22,7 17,6 23,8 26,2 20,7 8 4 18 10 WNW 1022,8 20 0 0,0
23.06.2017 13:00:00 23,0 17,7 24,4 26,3 20,7 9 5 15 8 W 1022,7 20 0 0,0
23.06.2017 12:00:00 21,8 17,8 22,4 26,4 20,7 6 3 15 8 W 1022,9 20 0 0,0
23.06.2017 11:00:00 21,1 17,5 22,5 26,5 20,6 9 5 20 11 W 1022,9 20 0 0,0
23.06.2017 10:00:00 21,5 17,7 21,6 26,6 20,6 7 4 14 8 W 1023,0 20 0 0,0
23.06.2017 09:00:00 20,6 17,6 20,9 26,8 20,6 7 4 13 7 W 1022,8 20 0 0,0
23.06.2017 08:00:00 19,9 18,2 19,1 27,0 20,6 3 2 9 5 SW 1022,4 20 0 0,0
23.06.2017 07:00:00 19,5 18,0 19,1 27,2 20,6 5 3 16 9 WSW 1022,1 6 0 0,0
23.06.2017 06:00:00 19,8 17,8 19,5 27,4 20,6 8 4 19 11 W 1021,9 14 0 0,0
23.06.2017 05:00:00 20,0 17,8 19,3 27,6 20,6 9 5 17 9 WSW 1021,8 19 0 0,0
23.06.2017 04:00:00 19,8 18,1 18,9 27,8 20,6 7 4 15 8 WSW 1021,6 20 0 0,0
23.06.2017 03:00:00 19,6 18,3 19,1 28,0 20,5 8 4 22 12 W 1021,6 4,0 0 0,0
23.06.2017 02:00:00 20,6 18,2 20,6 28,2 20,6 11 6 20 11 WNW 1021,1 17 0 0,0
23.06.2017 01:00:00 21,2 18,2 21,1 28,4 20,5 11 6 27 15 W 1020,9 18 0 0,0
23.06.2017 00:00:00 21,9 18,3 21,8 28,6 20,6 8 4 24 13 W 1020,2 15 0 0,0
22.06.2017 23:00:00 22,3 18,3 21,5 28,7 20,5 13 7 39 21 W 1019,6 15 0 0,0
22.06.2017 22:00:00 23,4 18,1 22,8 28,7 20,5 17 9 32 18 W 1018,4 16 0 0,0
22.06.2017 21:00:00 26,9 19,0 26,4 28,7 20,5 16 9 35 19 W 1017,0 16 31 0,0
22.06.2017 20:00:00 31,5 20,5 32,8 28,5 20,5 11 6 33 18 W 1015,6 12 60 0,0
22.06.2017 19:00:00 34,3 17,5 36,5 28,2 20,5 16 9 25 14 WNW 1014,9 15 60 0,0
22.06.2017 18:00:00 36,1 16,3 40,4 27,9 20,5 11 6 23 13 WNW 1014,7 15 60 0,0
22.06.2017 17:00:00 36,7 13,5 42,1 27,5 20,5 9 5 18 10 WNW 1015,0 19 60 0,0
22.06.2017 16:00:00 36,2 14,8 41,4 27,1 20,4 7 4 18 10 W 1015,2 16 60 0,0
22.06.2017 15:00:00 35,4 16,2 41,1 26,7 20,4 11 6 23 12 W 1015,6 17 60 0,0
22.06.2017 14:00:00 34,9 17,6 41,0 26,4 20,4 9 5 15 8 NNE 1015,8 16 60 0,0
22.06.2017 13:00:00 34,4 17,6 40,3 26,1 20,4 6 3 20 11 W 1016,2 18 60 0,0
22.06.2017 12:00:00 32,9 17,9 37,2 26,0 20,4 4 2 15 8 WSW 1016,3 16 60 0,0
22.06.2017 11:00:00 30,8 18,2 33,0 26,0 20,4 6 4 14 8 WNW 1016,5 18 60 0,0
22.06.2017 10:00:00 29,1 16,3 29,8 26,2 20,4 5 3 9 5 WNW 1016,6 20 60 0,0
22.06.2017 09:00:00 26,0 16,8 24,8 26,4 20,4 3 2 11 6 S 1016,3 20 60 0,0
22.06.2017 08:00:00 22,5 16,8 19,0 26,5 20,4 8 4 12 6 S 1016,0 19 60 0,0
22.06.2017 07:00:00 19,9 16,9 17,9 26,8 20,4 6 3 12 7 S 1015,7 18 0 0,0
22.06.2017 06:00:00 19,8 16,6 16,9 27,0 20,4 8 4 9 5 S 1015,5 19 0 0,0
22.06.2017 05:00:00 20,5 16,7 17,5 27,2 20,3 4 2 11 6 SSW 1015,1 18 0 0,0
22.06.2017 04:00:00 21,5 17,5 19,0 27,4 20,3 9 5 12 7 S 1015,2 19 0 0,0
22.06.2017 03:00:00 22,1 17,5 19,0 27,6 20,3 6 4 9 5 SSW 1015,3 19 0 0,0
22.06.2017 02:00:00 23,5 17,5 20,4 27,9 20,3 5 3 11 6 SSW 1015,2 19 0 0,0
22.06.2017 01:00:00 23,3 17,7 19,7 28,1 20,3 8 4 9 5 SSW 1015,3 19 0 0,0
22.06.2017 00:00:00 23,9 17,9 20,1 28,2 20,3 0 0 4 2 N 1015,2 19 0 0,0
21.06.2017 23:00:00 25,7 17,6 21,2 28,3 20,3 3 1 4 2 SSW 1014,8 18 0 0,0
21.06.2017 22:00:00 29,3 16,5 24,3 28,3 20,3 2 1 6 4 W 1013,9 19 6 0,0
21.06.2017 21:00:00 33,7 13,7 31,2 28,1 20,2 5 3 18 10 NW 1013,6 18 33 0,0
21.06.2017 20:00:00 35,4 12,4 36,0 28,0 20,2 11 6 21 11 NW 1012,9 20 60 0,0
21.06.2017 19:00:00 36,0 10,2 35,7 27,7 20,3 6 3 19 11 NW 1012,6 20 51 0,0
21.06.2017 18:00:00 37,4 9,9 41,6 27,4 20,2 5 3 21 12 SW 1012,7 20 60 0,0
21.06.2017 17:00:00 36,8 10,9 42,1 26,9 20,2 6 3 19 11 S 1012,6 20 60 0,0
21.06.2017 16:00:00 36,0 12,3 42,2 26,6 20,2 5 3 16 9 SSE 1013,0 17 60 0,0
21.06.2017 15:00:00 36,1 12,3 41,5 26,2 20,2 4 2 18 10 W 1013,4 20 60 0,0
21.06.2017 14:00:00 35,0 13,2 40,7 25,9 20,2 6 4 16 8 S 1014,3 19 60 0,0
21.06.2017 13:00:00 34,0 14,5 39,6 25,7 20,2 5 3 16 8 E 1014,8 19 60 0,0
21.06.2017 12:00:00 32,7 14,3 37,3 25,6 20,2 2 1 9 5 S 1015,4 20 60 0,0
21.06.2017 11:00:00 30,6 15,5 31,8 25,6 20,2 2 1 9 5 S 1015,4 20 60 0,0
21.06.2017 10:00:00 27,9 16,2 28,0 25,7 20,2 5 3 10 5 S 1015,4 20 60 0,0
21.06.2017 09:00:00 24,6 16,8 25,1 25,9 20,2 5 3 7 4 SSW 1015,8 20 57 0,0
21.06.2017 08:00:00 21,7 17,3 18,8 26,0 20,1 5 3 9 5 S 1015,7 20 52 0,0
21.06.2017 07:00:00 19,6 17,2 17,1 26,2 20,1 6 3 9 5 S 1015,4 20 0 0,0
21.06.2017 06:00:00 19,6 17,4 17,0 26,5 20,1 6 3 8 5 S 1015,0 20 0 0,0
21.06.2017 05:00:00 20,1 17,9 18,6 26,7 20,1 8 4 13 7 S 1014,8 16 0 0,0
21.06.2017 04:00:00 20,9 18,1 18,7 26,8 20,1 8 4 11 6 S 1015,0 18 0 0,0
21.06.2017 03:00:00 21,6 18,6 19,0 27,1 20,1 7 4 10 6 S 1015,3 18 0 0,0
21.06.2017 02:00:00 22,3 18,5 19,2 27,2 20,1 5 3 9 5 SSW 1015,6 19 0 0,0
21.06.2017 01:00:00 24,0 18,4 20,8 27,4 20,1 7 4 9 5 S 1015,9 17 0 0,0
21.06.2017 00:00:00 25,2 18,4 20,8 27,5 20,1 6 3 8 5 S 1015,5 20 0 0,0
20.06.2017 23:00:00 26,0 18,2 21,7 27,5 20,1 3 2 5 3 S 1015,5 20 0 0,0
20.06.2017 22:00:00 29,1 16,6 25,0 27,5 20,1 4 2 15 8 SSW 1014,7 20 17 0,0
20.06.2017 21:00:00 31,9 14,5 31,2 27,5 20,1 9 5 19 10 S 1014,4 20 60 0,0
20.06.2017 20:00:00 33,5 14,1 34,7 27,3 20,0 16 9 23 12 S 1013,9 20 55 0,0
20.06.2017 19:00:00 34,4 12,7 36,0 27,1 20,0 9 5 20 11 SSE 1013,7 20 53 0,0
20.06.2017 18:00:00 34,6 12,9 35,9 26,8 20,0 8 4 23 12 SE 1014,1 20 48 0,0
20.06.2017 17:00:00 35,5 12,5 39,0 26,5 20,0 7 4 18 10 S 1014,5 14 60 0,0
20.06.2017 16:00:00 35,0 11,4 38,0 26,0 20,0 11 6 22 12 SE 1014,9 20 51 0,0
20.06.2017 15:00:00 34,7 13,0 37,9 25,7 20,0 8 4 19 10 ESE 1015,1 20 51 0,0
20.06.2017 14:00:00 33,9 13,4 39,7 25,4 20,0 8 4 21 12 NE 1015,5 20 60 0,0
20.06.2017 13:00:00 32,8 14,4 37,8 25,1 20,0 5 3 19 10 E 1016,0 20 60 0,0
20.06.2017 12:00:00 31,8 15,3 35,9 25,0 20,0 6 4 15 8 ESE 1016,4 18 60 0,0
20.06.2017 11:00:00 30,4 17,5 32,1 25,0 20,0 7 4 16 9 SSE 1016,6 18 60 0,0
20.06.2017 10:00:00 27,7 19,0 28,4 25,1 20,0 6 4 13 7 SSE 1016,9 20 60 0,0
20.06.2017 09:00:00 25,0 19,4 25,6 25,3 20,0 0 0 6 4 N 1017,1 18 58 0,0
20.06.2017 08:00:00 21,6 19,2 19,7 25,4 20,0 0 0 5 3 N 1017,0 16 56 0,0
20.06.2017 07:00:00 19,8 18,5 17,0 25,6 19,9 2 1 5 3 NNE 1016,9 16 20 0,0

tt = Température de l'air
td = dewpoint
tt 5cm = Température de l'air 5cm
tt -20cm = Température de l'air -20cm
tt -100cm = Température de l'air -100cm
ff = Vitesse du vent
fx = gusts
dd = Direction du vent
ppp = reduced air pressure
vv = visibility
sd = Ensoleillement
rr = Quantités de précipitations

stations d'obs. à proximité